BREEZE-M DEB

Satellite information

Favourite Embed

Satellite Type and Status

DEBRISIN ORBIT

Key statistics

Satellite BREEZE-M DEB at a glance.

Uptime

7070

Days in orbit

Revolutions

≈ 6.5

Per day

Orbit

MEO

Medium Earth Orbit

Inclination

51.5

Latest

Satellite identification and parameters

Extended collection of information and parameters for BREEZE-M DEB.

Object identification

Identified? True

Debris? True

Object name: BREEZE-M DEB

International designator: 2006-006CE

Object number (NORAD): 34263

Object ID (CCSDS): 34263

Country: COMMONWEALTH OF INDEPENDENT STATES (CIS)

Current information (Y/N): Y

RCS size: SMALL

Orbital parameters

Period: 222.573 minutes

Inclination: 51.4793 deg

SMA: 12165.826 km

Apoapsis: 11151.63 km

Periapsis: 423.752 km

RAAN: 227.3813 deg

Eccentricy: 0.4409022

Argument of periapsis: 251.3146 deg

Mean anomaly: 56.9978 deg

Mean motion: 6.46979268 rev/day

Mean motion (dot): 0.00041519 rev/day2

B* drag term: 0.024052 1/REarth

Two-line elements (TLE)

Creation date: March 30, 2025, 10:26 p.m.

Reference frame: TEME

Reference center: EARTH

Epoch: March 14, 2025, 6:14 p.m. UTC

TLE line 0: 0 BREEZE-M DEB

TLE line 1: 1 34263U 06006CE 25073.76037032 .00041519 00000-0 24052-1 0 9999

TLE line 2: 2 34263 51.4793 227.3813 4409022 251.3146 56.9978 6.46979268352425

Live tracking on map

Real-time ground track for satellite BREEZE-M DEB.

In-orbit conjunctions

A list of the most updated potential collisions computed for object BREEZE-M DEB.

Target Orbit TCA Probability of collision Miss distance Type
BREEZE-M DEB MEO 2024-06-08 10:23:53 TBA 2513.0 (m) DEBRIS

Associated space launch

The Arabsat-4 spacecraft are based on the Eurostar-2000+ version of the Eurostar satellite family. Both satellites received the names Badr-1 and Badr-4 respectively in February 2006. Badr 1 did not reach its planned orbit, when the upper stage of the Proton-M Briz-M (Ph.3) launch vehicle failed. After evaluating a lunar fly-by maneuvre to rescue the satellite, Badr 1 was deorbited on 24.03.2006 over the pacific.

BREEZE-M DEB was lifted into orbit during the mission ‘Proton-M Briz-M | Arabsat 4A’, on board a Proton-M Briz-M space rocket.

The launch took place on Feb. 28, 2006, 8:10 p.m. from 200/39 (200L).

For more information about the launch, click the button.

Launch to space Proton-M Briz-M | Arabsat 4A
Proton-M Briz-M | Arabsat 4A

Agency: N/A

Status: Launch Failure

Launch date: Feb. 28, 2006, 8:10 p.m. UTC

Rocket: Proton-M Briz-M

Launch pad: 200/39 (200L)

Location: Baikonur Cosmodrome, Republic of Kazakhstan

...

Latest news about this satellite

There are no fresh news available about this satellite. Check back as we update our databases every day.


Newsletter sign-up

Weekly statistics, charts and insights to help you stay on top of the space industry.